Time,TemperatureF,DewpointF,PressureIn,WindDirection,WindDirectionDegrees,WindSpeedMPH,WindSpeedGustMPH,Humidity,HourlyPrecipIn,Conditions,Clouds,dailyrainin,SoftwareType,DateUTC
2013-01-12 00:00:00,38.3,35.6,29.93,ESE,113,0.0,0.0,90,0.00,,,0.00,WUHU216HW,2013-01-12 00:00:00,
2013-01-12 00:05:00,38.5,35.8,29.93,ESE,113,0.2,1.6,90,0.00,,,0.00,WUHU216HW,2013-01-12 00:05:00,
2013-01-12 00:10:00,38.5,35.8,29.93,ESE,113,0.9,1.6,90,0.00,,,0.00,WUHU216HW,2013-01-12 00:10:00,
2013-01-12 00:15:00,38.5,35.8,29.93,ESE,113,1.1,1.1,90,0.00,,,0.00,WUHU216HW,2013-01-12 00:15:00,
2013-01-12 00:20:00,38.5,35.8,29.93,SE,135,2.2,2.2,90,0.00,,,0.00,WUHU216HW,2013-01-12 00:20:00,
2013-01-12 00:25:00,38.5,35.6,29.93,ESE,113,1.1,2.2,89,0.00,,,0.00,WUHU216HW,2013-01-12 00:25:00,
2013-01-12 00:30:00,38.7,35.7,29.93,ESE,113,1.6,1.6,89,0.00,,,0.00,WUHU216HW,2013-01-12 00:30:00,
2013-01-12 00:35:00,38.7,35.5,29.93,ESE,113,1.8,1.8,88,0.00,,,0.00,WUHU216HW,2013-01-12 00:35:00,
2013-01-12 00:40:00,38.9,35.9,29.92,East,90,1.3,3.4,89,0.00,,,0.00,WUHU216HW,2013-01-12 00:40:00,
2013-01-12 00:45:00,38.9,35.9,29.92,ESE,113,0.4,3.4,89,0.00,,,0.00,WUHU216HW,2013-01-12 00:45:00,
2013-01-12 00:50:00,38.9,35.7,29.92,SE,135,1.8,1.8,88,0.00,,,0.00,WUHU216HW,2013-01-12 00:50:00,
2013-01-12 00:55:00,38.9,35.7,29.92,East,90,3.6,3.6,88,0.00,,,0.00,WUHU216HW,2013-01-12 00:55:00,
2013-01-12 01:00:00,38.9,35.7,29.92,SE,135,0.7,3.6,88,0.00,,,0.00,WUHU216HW,2013-01-12 01:00:00,
2013-01-12 01:05:00,38.7,35.5,29.93,East,90,2.7,2.7,88,0.00,,,0.00,WUHU216HW,2013-01-12 01:05:00,
2013-01-12 01:10:00,38.7,35.7,29.92,ESE,113,2.0,2.7,89,0.00,,,0.00,WUHU216HW,2013-01-12 01:10:00,
2013-01-12 01:15:00,38.5,35.3,29.92,SE,135,1.8,2.7,88,0.00,,,0.00,WUHU216HW,2013-01-12 01:15:00,
2013-01-12 01:20:00,38.5,35.3,29.92,ESE,113,1.3,1.8,88,0.00,,,0.00,WUHU216HW,2013-01-12 01:20:00,
2013-01-12 01:25:00,38.5,35.3,29.92,SE,135,1.1,1.8,88,0.00,,,0.00,WUHU216HW,2013-01-12 01:25:00,
2013-01-12 01:30:00,38.5,35.3,29.92,ESE,113,2.9,2.9,88,0.00,,,0.00,WUHU216HW,2013-01-12 01:30:00,
2013-01-12 01:35:00,38.5,35.3,29.92,SE,135,0.2,2.9,88,0.00,,,0.00,WUHU216HW,2013-01-12 01:35:00,
2013-01-12 01:40:00,38.5,35.6,29.92,SE,135,1.8,1.8,89,0.00,,,0.00,WUHU216HW,2013-01-12 01:40:00,
2013-01-12 01:45:00,38.3,35.4,29.92,ESE,113,4.0,4.0,89,0.00,,,0.00,WUHU216HW,2013-01-12 01:45:00,
2013-01-12 01:50:00,38.3,35.4,29.92,ESE,113,0.4,4.0,89,0.00,,,0.00,WUHU216HW,2013-01-12 01:50:00,
2013-01-12 01:55:00,38.2,35.5,29.92,SE,135,1.8,4.0,90,0.00,,,0.00,WUHU216HW,2013-01-12 01:55:00,
2013-01-12 02:00:00,38.0,35.3,29.93,SE,135,1.1,1.8,90,0.00,,,0.00,WUHU216HW,2013-01-12 02:00:00,
2013-01-12 02:05:00,38.0,35.3,29.92,ESE,113,1.1,1.8,90,0.00,,,0.00,WUHU216HW,2013-01-12 02:05:00,
2013-01-12 02:10:00,37.8,35.1,29.93,SE,135,0.4,2.2,90,0.00,,,0.00,WUHU216HW,2013-01-12 02:10:00,
2013-01-12 02:15:00,37.8,35.1,29.92,ESE,113,0.4,2.2,90,0.00,,,0.00,WUHU216HW,2013-01-12 02:15:00,
2013-01-12 02:20:00,37.8,34.8,29.92,ESE,113,2.7,2.7,89,0.00,,,0.00,WUHU216HW,2013-01-12 02:20:00,
2013-01-12 02:25:00,37.8,34.8,29.92,ESE,113,1.1,2.7,89,0.00,,,0.00,WUHU216HW,2013-01-12 02:25:00,
2013-01-12 02:30:00,37.4,34.5,29.92,ESE,113,0.7,2.7,89,0.00,,,0.00,WUHU216HW,2013-01-12 02:30:00,
2013-01-12 02:35:00,37.4,34.5,29.92,SE,135,1.8,1.8,89,0.00,,,0.00,WUHU216HW,2013-01-12 02:35:00,
2013-01-12 02:40:00,37.4,34.2,29.92,ESE,113,0.7,1.8,88,0.00,,,0.00,WUHU216HW,2013-01-12 02:40:00,
2013-01-12 02:45:00,37.4,34.2,29.92,SE,135,2.0,2.0,88,0.00,,,0.00,WUHU216HW,2013-01-12 02:45:00,
2013-01-12 02:50:00,37.4,34.2,29.92,ESE,113,0.4,2.0,88,0.00,,,0.00,WUHU216HW,2013-01-12 02:50:00,
2013-01-12 02:55:00,37.4,33.8,29.92,SE,135,1.1,2.0,87,0.00,,,0.00,WUHU216HW,2013-01-12 02:55:00,
2013-01-12 03:00:00,37.4,33.8,29.92,SE,135,1.1,1.1,87,0.00,,,0.00,WUHU216HW,2013-01-12 03:00:00,
2013-01-12 03:05:00,37.3,33.7,29.92,ENE,68,0.2,1.1,87,0.00,,,0.00,WUHU216HW,2013-01-12 03:05:00,
2013-01-12 03:10:00,37.3,33.7,29.92,ESE,113,3.1,3.1,87,0.00,,,0.00,WUHU216HW,2013-01-12 03:10:00,
2013-01-12 03:15:00,37.1,33.9,29.92,ESE,113,1.3,3.1,88,0.00,,,0.00,WUHU216HW,2013-01-12 03:15:00,
2013-01-12 03:20:00,37.1,33.5,29.92,ESE,113,0.9,3.1,87,0.00,,,0.00,WUHU216HW,2013-01-12 03:20:00,
2013-01-12 03:25:00,37.1,33.5,29.91,ESE,113,1.3,1.3,87,0.00,,,0.00,WUHU216HW,2013-01-12 03:25:00,
2013-01-12 03:30:00,37.1,33.9,29.91,ENE,68,0.7,1.3,88,0.00,,,0.00,WUHU216HW,2013-01-12 03:30:00,
2013-01-12 03:35:00,36.9,33.7,29.91,ESE,113,0.2,1.3,88,0.00,,,0.00,WUHU216HW,2013-01-12 03:35:00,
2013-01-12 03:40:00,36.9,33.7,29.92,SE,135,2.0,2.0,88,0.00,,,0.00,WUHU216HW,2013-01-12 03:40:00,
2013-01-12 03:45:00,36.7,33.5,29.91,East,90,1.6,2.0,88,0.00,,,0.00,WUHU216HW,2013-01-12 03:45:00,
2013-01-12 03:50:00,36.7,33.5,29.91,East,90,0.4,1.6,88,0.00,,,0.00,WUHU216HW,2013-01-12 03:50:00,
2013-01-12 03:55:00,36.7,33.5,29.91,SE,135,0.0,1.6,88,0.00,,,0.00,WUHU216HW,2013-01-12 03:55:00,
2013-01-12 04:00:00,36.5,33.6,29.91,SE,135,0.0,1.1,89,0.00,,,0.00,WUHU216HW,2013-01-12 04:00:00,
2013-01-12 04:06:00,36.4,33.4,29.91,SE,135,0.2,1.1,89,0.00,,,0.00,WUHU216HW,2013-01-12 04:06:00,
2013-01-12 04:11:00,36.4,33.4,29.91,ESE,113,0.4,0.4,89,0.00,,,0.00,WUHU216HW,2013-01-12 04:11:00,
2013-01-12 04:16:00,36.2,33.2,29.91,ESE,113,0.0,0.4,89,0.00,,,0.00,WUHU216HW,2013-01-12 04:16:00,
2013-01-12 04:21:00,35.6,32.7,29.91,ESE,113,0.0,0.4,89,0.00,,,0.00,WUHU216HW,2013-01-12 04:21:00,
2013-01-12 04:26:00,35.1,32.1,29.91,ESE,113,0.0,0.4,89,0.00,,,0.00,WUHU216HW,2013-01-12 04:26:00,
2013-01-12 04:31:00,34.9,32.0,29.91,ESE,113,0.0,0.0,89,0.00,,,0.00,WUHU216HW,2013-01-12 04:31:00,
2013-01-12 04:36:00,34.7,31.8,29.91,ESE,113,0.0,0.0,89,0.00,,,0.00,WUHU216HW,2013-01-12 04:36:00,
2013-01-12 04:41:00,34.2,31.2,29.91,ESE,113,0.0,0.0,89,0.00,,,0.00,WUHU216HW,2013-01-12 04:41:00,
2013-01-12 04:46:00,34.2,31.5,29.91,ESE,113,0.0,0.0,90,0.00,,,0.00,WUHU216HW,2013-01-12 04:46:00,
2013-01-12 04:51:00,34.2,31.5,29.91,ESE,113,0.0,0.0,90,0.00,,,0.00,WUHU216HW,2013-01-12 04:51:00,
2013-01-12 04:56:00,34.2,31.5,29.91,ESE,113,0.0,0.0,90,0.00,,,0.00,WUHU216HW,2013-01-12 04:56:00,
2013-01-12 05:01:00,34.0,31.3,29.91,ESE,113,0.0,0.0,90,0.00,,,0.00,WUHU216HW,2013-01-12 05:01:00,
2013-01-12 05:06:00,34.0,31.3,29.91,ESE,113,0.0,0.0,90,0.00,,,0.00,WUHU216HW,2013-01-12 05:06:00,
2013-01-12 05:11:00,33.8,31.4,29.91,East,90,0.2,0.2,91,0.00,,,0.00,WUHU216HW,2013-01-12 05:11:00,
2013-01-12 05:16:00,33.8,31.4,29.91,East,90,0.0,0.2,91,0.00,,,0.00,WUHU216HW,2013-01-12 05:16:00,
2013-01-12 05:21:00,34.0,31.6,29.91,East,90,0.4,0.4,91,0.00,,,0.00,WUHU216HW,2013-01-12 05:21:00,
2013-01-12 05:26:00,34.4,32.2,29.91,SE,135,0.0,0.4,92,0.00,,,0.00,WUHU216HW,2013-01-12 05:26:00,
2013-01-12 05:31:00,34.7,32.6,29.91,SE,135,0.4,0.4,92,0.00,,,0.00,WUHU216HW,2013-01-12 05:31:00,
2013-01-12 05:36:00,34.9,32.8,29.91,SE,135,0.7,0.7,92,0.00,,,0.00,WUHU216HW,2013-01-12 05:36:00,
2013-01-12 05:41:00,35.1,32.9,29.91,SE,135,0.4,0.7,92,0.00,,,0.00,WUHU216HW,2013-01-12 05:41:00,
2013-01-12 05:46:00,35.6,33.5,29.91,ESE,113,0.4,0.7,92,0.00,,,0.00,WUHU216HW,2013-01-12 05:46:00,
2013-01-12 05:51:00,35.8,33.4,29.91,ESE,113,1.8,1.8,91,0.00,,,0.00,WUHU216HW,2013-01-12 05:51:00,
2013-01-12 05:56:00,36.0,33.6,29.91,East,90,0.0,1.8,91,0.00,,,0.00,WUHU216HW,2013-01-12 05:56:00,
2013-01-12 06:01:00,35.8,33.4,29.91,East,90,0.4,1.8,91,0.00,,,0.00,WUHU216HW,2013-01-12 06:01:00,
2013-01-12 06:06:00,36.0,33.3,29.91,ESE,113,0.4,0.4,90,0.00,,,0.00,WUHU216HW,2013-01-12 06:06:00,
2013-01-12 06:11:00,36.0,33.3,29.91,ENE,68,0.7,0.7,90,0.00,,,0.00,WUHU216HW,2013-01-12 06:11:00,
2013-01-12 06:16:00,36.0,33.3,29.91,East,90,0.4,0.7,90,0.00,,,0.00,WUHU216HW,2013-01-12 06:16:00,
2013-01-12 06:21:00,36.2,33.5,29.92,ESE,113,0.9,0.9,90,0.00,,,0.00,WUHU216HW,2013-01-12 06:21:00,
2013-01-12 06:26:00,36.4,33.7,29.92,SE,135,0.4,0.9,90,0.00,,,0.00,WUHU216HW,2013-01-12 06:26:00,
2013-01-12 06:31:00,36.5,33.6,29.92,ESE,113,0.9,0.9,89,0.00,,,0.00,WUHU216HW,2013-01-12 06:31:00,
2013-01-12 06:36:00,36.7,33.8,29.92,SE,135,1.3,1.3,89,0.00,,,0.00,WUHU216HW,2013-01-12 06:36:00,
2013-01-12 06:41:00,36.7,33.8,29.92,SE,135,0.4,1.3,89,0.00,,,0.00,WUHU216HW,2013-01-12 06:41:00,
2013-01-12 06:46:00,36.9,33.9,29.92,NE,45,0.4,1.3,89,0.00,,,0.00,WUHU216HW,2013-01-12 06:46:00,
2013-01-12 06:51:00,37.1,34.1,29.92,ESE,113,1.6,1.6,89,0.00,,,0.00,WUHU216HW,2013-01-12 06:51:00,
2013-01-12 06:56:00,37.1,34.1,29.93,SE,135,0.0,1.6,89,0.00,,,0.00,WUHU216HW,2013-01-12 06:56:00,
2013-01-12 07:01:00,37.1,34.1,29.92,SE,135,0.0,1.6,89,0.00,,,0.00,WUHU216HW,2013-01-12 07:01:00,
2013-01-12 07:06:00,37.1,34.1,29.92,ESE,113,0.2,1.6,89,0.00,,,0.00,WUHU216HW,2013-01-12 07:06:00,
2013-01-12 07:11:00,37.1,34.1,29.93,ESE,113,1.3,1.6,89,0.00,,,0.00,WUHU216HW,2013-01-12 07:11:00,
2013-01-12 07:16:00,36.9,33.9,29.93,ESE,113,1.1,1.3,89,0.00,,,0.00,WUHU216HW,2013-01-12 07:16:00,
2013-01-12 07:21:00,36.7,33.8,29.93,SE,135,1.1,1.3,89,0.00,,,0.00,WUHU216HW,2013-01-12 07:21:00,
2013-01-12 07:26:00,36.7,33.8,29.93,ESE,113,0.9,1.1,89,0.00,,,0.00,WUHU216HW,2013-01-12 07:26:00,
2013-01-12 07:31:00,36.7,33.8,29.93,SSE,158,1.8,1.8,89,0.00,,,0.00,WUHU216HW,2013-01-12 07:31:00,
2013-01-12 07:36:00,36.7,33.8,29.93,ESE,113,0.0,1.8,89,0.00,,,0.00,WUHU216HW,2013-01-12 07:36:00,
2013-01-12 07:41:00,36.9,33.9,29.93,ESE,113,1.1,1.8,89,0.00,,,0.00,WUHU216HW,2013-01-12 07:41:00,
2013-01-12 07:46:00,36.9,33.9,29.93,SE,135,1.1,1.1,89,0.00,,,0.00,WUHU216HW,2013-01-12 07:46:00,
2013-01-12 07:51:00,37.1,33.9,29.94,SE,135,0.2,1.1,88,0.00,,,0.00,WUHU216HW,2013-01-12 07:51:00,
2013-01-12 07:56:00,37.1,34.1,29.94,SE,135,0.4,1.1,89,0.00,,,0.00,WUHU216HW,2013-01-12 07:56:00,
2013-01-12 08:01:00,37.1,33.9,29.94,SE,135,1.1,1.1,88,0.00,,,0.00,WUHU216HW,2013-01-12 08:01:00,
2013-01-12 08:06:00,37.1,33.9,29.94,East,90,0.2,1.1,88,0.00,,,0.00,WUHU216HW,2013-01-12 08:06:00,
2013-01-12 08:11:00,37.1,33.9,29.94,SE,135,0.9,1.1,88,0.00,,,0.00,WUHU216HW,2013-01-12 08:11:00,
2013-01-12 08:16:00,37.3,34.0,29.94,SE,135,0.7,0.9,88,0.00,,,0.00,WUHU216HW,2013-01-12 08:16:00,
2013-01-12 08:21:00,37.4,34.5,29.94,ESE,113,1.1,1.6,89,0.00,,,0.00,WUHU216HW,2013-01-12 08:21:00,
2013-01-12 08:26:00,37.4,34.5,29.94,East,90,0.4,1.6,89,0.00,,,0.00,WUHU216HW,2013-01-12 08:26:00,
2013-01-12 08:31:00,37.4,34.5,29.95,SE,135,0.9,1.1,89,0.00,,,0.00,WUHU216HW,2013-01-12 08:31:00,
2013-01-12 08:36:00,37.6,34.4,29.95,ESE,113,1.1,1.1,88,0.00,,,0.00,WUHU216HW,2013-01-12 08:36:00,
2013-01-12 08:41:00,37.6,34.4,29.95,SE,135,1.8,1.8,88,0.00,,,0.00,WUHU216HW,2013-01-12 08:41:00,
2013-01-12 08:46:00,37.8,34.6,29.96,SE,135,0.0,1.8,88,0.00,,,0.00,WUHU216HW,2013-01-12 08:46:00,
2013-01-12 08:51:00,37.6,34.7,29.96,East,90,0.0,1.8,89,0.00,,,0.00,WUHU216HW,2013-01-12 08:51:00,
2013-01-12 08:56:00,37.6,34.4,29.96,East,90,0.2,0.9,88,0.00,,,0.00,WUHU216HW,2013-01-12 08:56:00,
2013-01-12 09:01:00,37.8,34.6,29.96,SE,135,0.4,0.9,88,0.00,,,0.00,WUHU216HW,2013-01-12 09:01:00,
2013-01-12 09:06:00,37.8,34.6,29.96,NE,45,0.4,0.4,88,0.00,,,0.00,WUHU216HW,2013-01-12 09:06:00,
2013-01-12 09:11:00,37.8,34.6,29.96,SE,135,1.1,1.1,88,0.00,,,0.00,WUHU216HW,2013-01-12 09:11:00,
2013-01-12 09:16:00,37.8,34.6,29.96,SE,135,0.2,1.1,88,0.00,,,0.00,WUHU216HW,2013-01-12 09:16:00,
2013-01-12 09:21:00,37.8,34.6,29.97,ESE,113,0.4,1.1,88,0.00,,,0.00,WUHU216HW,2013-01-12 09:21:00,
2013-01-12 09:26:00,37.8,34.6,29.97,SE,135,0.7,0.7,88,0.00,,,0.00,WUHU216HW,2013-01-12 09:26:00,
2013-01-12 09:31:00,37.8,34.6,29.97,SE,135,2.0,2.0,88,0.00,,,0.00,WUHU216HW,2013-01-12 09:31:00,
2013-01-12 09:36:00,37.8,34.6,29.98,ESE,113,0.9,2.0,88,0.00,,,0.00,WUHU216HW,2013-01-12 09:36:00,
2013-01-12 09:41:00,37.8,34.2,29.97,ESE,113,0.4,2.0,87,0.00,,,0.00,WUHU216HW,2013-01-12 09:41:00,
2013-01-12 09:46:00,38.0,34.4,29.98,ESE,113,0.0,0.9,87,0.00,,,0.00,WUHU216HW,2013-01-12 09:46:00,
2013-01-12 09:51:00,38.0,34.4,29.98,SE,135,0.4,0.4,87,0.00,,,0.00,WUHU216HW,2013-01-12 09:51:00,
2013-01-12 09:56:00,38.0,34.8,29.98,SE,135,0.4,0.4,88,0.00,,,0.00,WUHU216HW,2013-01-12 09:56:00,
2013-01-12 10:01:00,38.2,34.9,29.98,SE,135,0.4,0.4,88,0.00,,,0.00,WUHU216HW,2013-01-12 10:01:00,
2013-01-12 10:06:00,38.2,34.6,29.98,NNE,23,1.1,1.1,87,0.00,,,0.00,WUHU216HW,2013-01-12 10:06:00,
2013-01-12 10:11:00,38.2,34.6,29.98,East,90,0.4,1.1,87,0.00,,,0.00,WUHU216HW,2013-01-12 10:11:00,
2013-01-12 10:16:00,38.3,34.5,29.99,East,90,0.4,1.1,86,0.00,,,0.00,WUHU216HW,2013-01-12 10:16:00,
2013-01-12 10:21:00,38.5,34.7,29.99,ESE,113,1.3,1.3,86,0.00,,,0.00,WUHU216HW,2013-01-12 10:21:00,
2013-01-12 10:26:00,38.5,34.4,29.99,SE,135,0.4,1.3,85,0.00,,,0.00,WUHU216HW,2013-01-12 10:26:00,
2013-01-12 10:31:00,38.7,34.6,29.99,SE,135,1.3,1.3,85,0.00,,,0.00,WUHU216HW,2013-01-12 10:31:00,
2013-01-12 10:36:00,38.7,34.8,29.99,SE,135,0.4,1.3,86,0.00,,,0.00,WUHU216HW,2013-01-12 10:36:00,
2013-01-12 10:41:00,38.7,34.8,29.99,SE,135,0.0,1.3,86,0.00,,,0.00,WUHU216HW,2013-01-12 10:41:00,
2013-01-12 10:46:00,38.7,34.8,29.99,SE,135,0.4,0.4,86,0.00,,,0.00,WUHU216HW,2013-01-12 10:46:00,
2013-01-12 10:51:00,38.7,34.6,29.99,SE,135,1.8,1.8,85,0.00,,,0.00,WUHU216HW,2013-01-12 10:51:00,
2013-01-12 10:56:00,38.7,34.6,29.99,ESE,113,0.7,1.8,85,0.00,,,0.00,WUHU216HW,2013-01-12 10:56:00,
2013-01-12 11:01:00,38.7,34.6,30.00,ESE,113,0.4,1.8,85,0.00,,,0.00,WUHU216HW,2013-01-12 11:01:00,
2013-01-12 11:06:00,38.7,34.6,29.99,ESE,113,1.8,1.8,85,0.00,,,0.00,WUHU216HW,2013-01-12 11:06:00,
2013-01-12 11:11:00,38.7,34.6,30.00,ESE,113,0.0,1.8,85,0.00,,,0.00,WUHU216HW,2013-01-12 11:11:00,
2013-01-12 11:16:00,38.9,35.0,29.99,ENE,68,0.4,1.8,86,0.00,,,0.00,WUHU216HW,2013-01-12 11:16:00,
2013-01-12 11:21:00,38.7,34.6,29.99,ESE,113,0.4,0.4,85,0.00,,,0.00,WUHU216HW,2013-01-12 11:21:00,
2013-01-12 11:26:00,38.9,34.5,30.00,SE,135,0.4,0.4,84,0.00,,,0.00,WUHU216HW,2013-01-12 11:26:00,
2013-01-12 11:31:00,39.1,34.7,30.00,ESE,113,0.4,0.4,84,0.00,,,0.00,WUHU216HW,2013-01-12 11:31:00,
2013-01-12 11:36:00,39.2,34.8,30.00,East,90,0.4,0.4,84,0.00,,,0.00,WUHU216HW,2013-01-12 11:36:00,
2013-01-12 11:41:00,39.2,34.8,29.99,SE,135,0.4,0.4,84,0.00,,,0.00,WUHU216HW,2013-01-12 11:41:00,
2013-01-12 11:46:00,39.4,35.0,30.00,SE,135,0.4,0.4,84,0.00,,,0.00,WUHU216HW,2013-01-12 11:46:00,
2013-01-12 11:51:00,39.4,34.7,30.00,ESE,113,1.1,1.1,83,0.00,,,0.00,WUHU216HW,2013-01-12 11:51:00,
2013-01-12 11:56:00,39.4,34.7,29.99,SE,135,2.9,2.9,83,0.00,,,0.00,WUHU216HW,2013-01-12 11:56:00,
2013-01-12 12:01:00,39.4,34.7,29.99,ESE,113,0.2,2.9,83,0.00,,,0.00,WUHU216HW,2013-01-12 12:01:00,
2013-01-12 12:06:00,39.6,35.2,30.00,ESE,113,1.8,1.8,84,0.00,,,0.00,WUHU216HW,2013-01-12 12:06:00,
2013-01-12 12:11:00,39.4,35.0,29.99,East,90,0.4,1.8,84,0.00,,,0.00,WUHU216HW,2013-01-12 12:11:00,
2013-01-12 12:16:00,39.6,35.2,29.99,ESE,113,0.0,1.8,84,0.00,,,0.00,WUHU216HW,2013-01-12 12:16:00,
2013-01-12 12:21:00,39.4,35.0,29.99,NNE,23,1.1,1.1,84,0.00,,,0.00,WUHU216HW,2013-01-12 12:21:00,
2013-01-12 12:26:00,39.4,35.0,29.99,East,90,0.7,1.8,84,0.00,,,0.00,WUHU216HW,2013-01-12 12:26:00,
2013-01-12 12:31:00,39.4,35.0,29.99,SE,135,0.2,1.8,84,0.00,,,0.00,WUHU216HW,2013-01-12 12:31:00,
2013-01-12 12:36:00,39.6,35.2,29.99,SE,135,1.8,1.8,84,0.00,,,0.00,WUHU216HW,2013-01-12 12:36:00,
2013-01-12 12:41:00,39.6,35.2,29.99,SE,135,0.2,2.0,84,0.00,,,0.00,WUHU216HW,2013-01-12 12:41:00,
2013-01-12 12:46:00,39.6,35.2,29.99,ESE,113,1.8,2.0,84,0.00,,,0.00,WUHU216HW,2013-01-12 12:46:00,
2013-01-12 12:51:00,39.6,35.2,30.00,ESE,113,2.5,2.5,84,0.00,,,0.00,WUHU216HW,2013-01-12 12:51:00,
2013-01-12 12:57:00,39.6,35.2,30.00,SE,135,3.1,3.1,84,0.00,,,0.00,WUHU216HW,2013-01-12 12:57:00,
2013-01-12 13:02:00,39.4,34.7,30.00,ESE,113,1.8,3.1,83,0.00,,,0.00,WUHU216HW,2013-01-12 13:02:00,
2013-01-12 13:07:00,39.2,34.6,30.00,ESE,113,1.8,1.8,83,0.00,,,0.00,WUHU216HW,2013-01-12 13:07:00,
2013-01-12 13:12:00,39.2,34.8,30.00,SE,135,1.6,1.8,84,0.00,,,0.00,WUHU216HW,2013-01-12 13:12:00,
2013-01-12 13:17:00,39.2,34.8,30.00,ESE,113,0.2,1.8,84,0.00,,,0.00,WUHU216HW,2013-01-12 13:17:00,
2013-01-12 13:22:00,39.4,35.0,30.00,ESE,113,2.7,2.7,84,0.00,,,0.00,WUHU216HW,2013-01-12 13:22:00,
2013-01-12 13:27:00,39.8,35.3,30.00,SE,135,0.7,2.7,84,0.00,,,0.00,WUHU216HW,2013-01-12 13:27:00,
2013-01-12 13:32:00,40.0,35.5,30.00,ESE,113,0.9,2.7,84,0.00,,,0.00,WUHU216HW,2013-01-12 13:32:00,
2013-01-12 13:37:00,40.1,35.1,30.00,ESE,113,1.1,2.0,82,0.00,,,0.00,WUHU216HW,2013-01-12 13:37:00,
2013-01-12 13:42:00,40.0,35.2,30.00,SE,135,0.4,2.0,83,0.00,,,0.00,WUHU216HW,2013-01-12 13:42:00,
2013-01-12 13:47:00,40.0,34.9,30.00,SE,135,1.8,1.8,82,0.00,,,0.00,WUHU216HW,2013-01-12 13:47:00,
2013-01-12 13:52:00,40.1,35.4,30.00,SE,135,0.0,1.8,83,0.00,,,0.00,WUHU216HW,2013-01-12 13:52:00,
2013-01-12 13:57:00,40.3,35.6,30.00,NE,45,0.4,1.8,83,0.00,,,0.00,WUHU216HW,2013-01-12 13:57:00,
2013-01-12 14:02:00,40.5,35.7,30.00,ESE,113,1.8,1.8,83,0.00,,,0.00,WUHU216HW,2013-01-12 14:02:00,
2013-01-12 14:07:00,40.7,35.8,30.01,ESE,113,0.7,1.8,83,0.00,,,0.00,WUHU216HW,2013-01-12 14:07:00,
2013-01-12 14:12:00,40.7,35.6,30.01,ESE,113,4.5,4.5,82,0.00,,,0.00,WUHU216HW,2013-01-12 14:12:00,
2013-01-12 14:17:00,40.7,35.6,30.01,ESE,113,2.5,4.5,82,0.00,,,0.00,WUHU216HW,2013-01-12 14:17:00,
2013-01-12 14:22:00,40.7,35.6,30.01,ESE,113,1.1,2.5,82,0.00,,,0.00,WUHU216HW,2013-01-12 14:22:00,
2013-01-12 14:27:00,40.7,35.3,30.02,East,90,0.9,2.5,81,0.00,,,0.00,WUHU216HW,2013-01-12 14:27:00,
2013-01-12 14:32:00,40.7,35.3,30.02,ESE,113,0.9,1.1,81,0.00,,,0.00,WUHU216HW,2013-01-12 14:32:00,
2013-01-12 14:37:00,40.3,34.9,30.02,SE,135,3.4,3.4,81,0.00,,,0.00,WUHU216HW,2013-01-12 14:37:00,
2013-01-12 14:42:00,40.3,34.9,30.02,ESE,113,1.8,3.4,81,0.00,,,0.00,WUHU216HW,2013-01-12 14:42:00,
2013-01-12 14:47:00,40.3,35.2,30.02,North,0,0.0,3.4,82,0.00,,,0.00,WUHU216HW,2013-01-12 14:47:00,
2013-01-12 14:52:00,40.5,35.4,30.02,North,0,0.0,1.8,82,0.00,,,0.00,WUHU216HW,2013-01-12 14:52:00,
2013-01-12 14:57:00,40.5,35.1,30.02,East,90,3.8,3.8,81,0.00,,,0.00,WUHU216HW,2013-01-12 14:57:00,
2013-01-12 15:02:00,40.5,35.4,30.02,North,0,0.0,3.8,82,0.00,,,0.00,WUHU216HW,2013-01-12 15:02:00,
2013-01-12 15:07:00,40.5,35.1,30.02,North,0,0.0,0.0,81,0.00,,,0.00,WUHU216HW,2013-01-12 15:07:00,
2013-01-12 15:12:00,40.5,35.1,30.02,WSW,248,2.5,2.5,81,0.00,,,0.00,WUHU216HW,2013-01-12 15:12:00,
2013-01-12 15:17:00,40.1,34.7,30.02,SE,135,1.1,2.5,81,0.00,,,0.00,WUHU216HW,2013-01-12 15:17:00,
2013-01-12 15:22:00,40.0,34.3,30.02,ESE,113,2.5,2.5,80,0.00,,,0.00,WUHU216HW,2013-01-12 15:22:00,
2013-01-12 15:27:00,39.8,34.5,30.03,ESE,113,1.8,2.5,81,0.00,,,0.00,WUHU216HW,2013-01-12 15:27:00,
2013-01-12 15:32:00,39.4,34.4,30.03,ESE,113,0.9,2.5,82,0.00,,,0.00,WUHU216HW,2013-01-12 15:32:00,
2013-01-12 15:37:00,39.4,34.4,30.03,ESE,113,1.1,2.5,82,0.00,,,0.00,WUHU216HW,2013-01-12 15:37:00,
2013-01-12 15:42:00,39.2,34.2,30.03,East,90,0.4,1.1,82,0.00,,,0.00,WUHU216HW,2013-01-12 15:42:00,
2013-01-12 15:47:00,39.2,34.2,30.03,ESE,113,1.6,1.6,82,0.00,,,0.00,WUHU216HW,2013-01-12 15:47:00,
2013-01-12 15:52:00,39.1,34.0,30.04,SE,135,0.4,1.6,82,0.00,,,0.00,WUHU216HW,2013-01-12 15:52:00,
2013-01-12 15:57:00,38.7,33.7,30.04,ESE,113,1.3,2.2,82,0.00,,,0.00,WUHU216HW,2013-01-12 15:57:00,
2013-01-12 16:02:00,38.7,33.7,30.04,ESE,113,1.8,2.2,82,0.00,,,0.00,WUHU216HW,2013-01-12 16:02:00,
2013-01-12 16:07:00,38.5,33.5,30.04,SE,135,1.1,1.8,82,0.00,,,0.00,WUHU216HW,2013-01-12 16:07:00,
2013-01-12 16:12:00,38.5,33.9,30.04,ENE,68,0.7,1.1,83,0.00,,,0.00,WUHU216HW,2013-01-12 16:12:00,
2013-01-12 16:17:00,38.3,33.7,30.04,ESE,113,1.1,1.1,83,0.00,,,0.00,WUHU216HW,2013-01-12 16:17:00,
2013-01-12 16:22:00,38.3,33.7,30.04,East,90,0.4,1.1,83,0.00,,,0.00,WUHU216HW,2013-01-12 16:22:00,
2013-01-12 16:27:00,38.3,33.9,30.04,ESE,113,3.4,3.4,84,0.00,,,0.00,WUHU216HW,2013-01-12 16:27:00,
2013-01-12 16:32:00,38.3,33.9,30.04,SE,135,1.3,3.4,84,0.00,,,0.00,WUHU216HW,2013-01-12 16:32:00,
2013-01-12 16:37:00,38.3,33.7,30.04,ESE,113,0.7,3.4,83,0.00,,,0.00,WUHU216HW,2013-01-12 16:37:00,
2013-01-12 16:42:00,38.3,33.9,30.04,East,90,0.2,1.3,84,0.00,,,0.00,WUHU216HW,2013-01-12 16:42:00,
2013-01-12 16:47:00,38.5,33.9,30.04,East,90,1.1,1.1,83,0.00,,,0.00,WUHU216HW,2013-01-12 16:47:00,
2013-01-12 16:52:00,38.5,34.1,30.04,ESE,113,0.0,1.1,84,0.00,,,0.00,WUHU216HW,2013-01-12 16:52:00,
2013-01-12 16:57:00,38.5,34.1,30.05,SE,135,0.4,1.1,84,0.00,,,0.00,WUHU216HW,2013-01-12 16:57:00,
2013-01-12 17:02:00,38.5,34.1,30.05,SE,135,1.8,1.8,84,0.00,,,0.00,WUHU216HW,2013-01-12 17:02:00,
2013-01-12 17:07:00,38.5,34.1,30.05,SE,135,0.9,1.8,84,0.00,,,0.00,WUHU216HW,2013-01-12 17:07:00,
2013-01-12 17:12:00,38.5,34.1,30.05,SE,135,0.7,1.8,84,0.00,,,0.00,WUHU216HW,2013-01-12 17:12:00,
2013-01-12 17:17:00,38.3,33.9,30.05,ENE,68,0.7,0.9,84,0.00,,,0.00,WUHU216HW,2013-01-12 17:17:00,
2013-01-12 17:22:00,38.2,34.0,30.05,East,90,0.4,0.9,85,0.00,,,0.00,WUHU216HW,2013-01-12 17:22:00,
2013-01-12 17:27:00,38.2,34.0,30.05,SE,135,0.4,0.7,85,0.00,,,0.00,WUHU216HW,2013-01-12 17:27:00,
2013-01-12 17:32:00,38.2,34.0,30.05,ESE,113,0.2,1.1,85,0.00,,,0.00,WUHU216HW,2013-01-12 17:32:00,
2013-01-12 17:37:00,38.2,34.0,30.05,ESE,113,1.1,1.1,85,0.00,,,0.00,WUHU216HW,2013-01-12 17:37:00,
2013-01-12 17:42:00,38.0,33.8,30.05,ESE,113,0.7,1.1,85,0.00,,,0.00,WUHU216HW,2013-01-12 17:42:00,
2013-01-12 17:47:00,38.2,34.0,30.06,ESE,113,0.2,1.1,85,0.00,,,0.00,WUHU216HW,2013-01-12 17:47:00,
2013-01-12 17:52:00,38.2,34.0,30.06,ESE,113,0.4,0.7,85,0.00,,,0.00,WUHU216HW,2013-01-12 17:52:00,
2013-01-12 17:57:00,38.0,33.8,30.06,ESE,113,0.0,0.4,85,0.00,,,0.00,WUHU216HW,2013-01-12 17:57:00,
2013-01-12 18:02:00,38.0,33.8,30.06,ESE,113,0.0,0.4,85,0.00,,,0.00,WUHU216HW,2013-01-12 18:02:00,
2013-01-12 18:07:00,38.2,34.0,30.06,ESE,113,0.0,0.2,85,0.00,,,0.00,WUHU216HW,2013-01-12 18:07:00,
2013-01-12 18:12:00,38.0,33.8,30.06,ESE,113,0.7,0.7,85,0.00,,,0.00,WUHU216HW,2013-01-12 18:12:00,
2013-01-12 18:17:00,38.0,33.8,30.06,ESE,113,1.1,1.1,85,0.00,,,0.00,WUHU216HW,2013-01-12 18:17:00,
2013-01-12 18:22:00,38.2,34.0,30.06,East,90,0.7,1.1,85,0.00,,,0.00,WUHU216HW,2013-01-12 18:22:00,
2013-01-12 18:27:00,38.0,33.8,30.06,ESE,113,0.4,1.1,85,0.00,,,0.00,WUHU216HW,2013-01-12 18:27:00,
2013-01-12 18:32:00,38.2,34.3,30.06,East,90,0.4,0.7,86,0.00,,,0.00,WUHU216HW,2013-01-12 18:32:00,
2013-01-12 18:37:00,38.2,34.3,30.06,ESE,113,0.4,0.4,86,0.00,,,0.00,WUHU216HW,2013-01-12 18:37:00,
2013-01-12 18:42:00,38.2,34.3,30.06,ESE,113,0.4,0.4,86,0.00,,,0.00,WUHU216HW,2013-01-12 18:42:00,
2013-01-12 18:47:00,38.0,34.1,30.06,ESE,113,0.9,0.9,86,0.00,,,0.00,WUHU216HW,2013-01-12 18:47:00,
2013-01-12 18:52:00,38.0,34.1,30.06,East,90,3.1,3.1,86,0.00,,,0.00,WUHU216HW,2013-01-12 18:52:00,
2013-01-12 18:57:00,38.2,34.3,30.06,ESE,113,1.1,3.1,86,0.00,,,0.00,WUHU216HW,2013-01-12 18:57:00,
2013-01-12 19:02:00,38.0,34.1,30.07,SE,135,1.3,3.1,86,0.00,,,0.00,WUHU216HW,2013-01-12 19:02:00,
2013-01-12 19:07:00,38.0,34.1,30.07,ESE,113,1.3,1.3,86,0.00,,,0.00,WUHU216HW,2013-01-12 19:07:00,
2013-01-12 19:12:00,38.0,34.1,30.07,ESE,113,0.9,1.3,86,0.00,,,0.00,WUHU216HW,2013-01-12 19:12:00,
2013-01-12 19:17:00,38.0,34.1,30.07,ESE,113,0.7,1.3,86,0.00,,,0.00,WUHU216HW,2013-01-12 19:17:00,
2013-01-12 19:22:00,37.8,33.9,30.07,ESE,113,0.4,0.7,86,0.00,,,0.00,WUHU216HW,2013-01-12 19:22:00,
2013-01-12 19:27:00,37.8,33.9,30.07,ESE,113,0.2,0.7,86,0.00,,,0.00,WUHU216HW,2013-01-12 19:27:00,
2013-01-12 19:32:00,37.8,33.9,30.07,ESE,113,0.0,0.4,86,0.00,,,0.00,WUHU216HW,2013-01-12 19:32:00,
2013-01-12 19:37:00,37.8,33.9,30.07,ESE,113,0.4,0.4,86,0.00,,,0.00,WUHU216HW,2013-01-12 19:37:00,
2013-01-12 19:42:00,37.8,33.9,30.07,ESE,113,0.0,0.4,86,0.00,,,0.00,WUHU216HW,2013-01-12 19:42:00,
2013-01-12 19:47:00,37.8,33.9,30.07,ESE,113,0.2,0.4,86,0.00,,,0.00,WUHU216HW,2013-01-12 19:47:00,
2013-01-12 19:52:00,37.6,33.8,30.07,ESE,113,0.0,0.2,86,0.00,,,0.00,WUHU216HW,2013-01-12 19:52:00,
2013-01-12 19:57:00,37.6,33.8,30.07,ESE,113,0.2,0.2,86,0.00,,,0.00,WUHU216HW,2013-01-12 19:57:00,
2013-01-12 20:02:00,37.4,33.8,30.07,ESE,113,0.0,0.2,87,0.00,,,0.00,WUHU216HW,2013-01-12 20:02:00,
2013-01-12 20:07:00,37.4,33.8,30.07,ESE,113,0.2,0.2,87,0.00,,,0.00,WUHU216HW,2013-01-12 20:07:00,
2013-01-12 20:12:00,37.3,33.7,30.08,ESE,113,0.2,0.2,87,0.00,,,0.00,WUHU216HW,2013-01-12 20:12:00,
2013-01-12 20:17:00,37.3,33.7,30.08,ESE,113,0.0,0.2,87,0.00,,,0.00,WUHU216HW,2013-01-12 20:17:00,
2013-01-12 20:22:00,37.1,33.5,30.07,ESE,113,0.0,0.0,87,0.00,,,0.00,WUHU216HW,2013-01-12 20:22:00,
2013-01-12 20:27:00,37.1,33.5,30.08,ESE,113,0.2,0.2,87,0.00,,,0.00,WUHU216HW,2013-01-12 20:27:00,
2013-01-12 20:32:00,37.1,33.5,30.08,ESE,113,0.0,0.2,87,0.00,,,0.00,WUHU216HW,2013-01-12 20:32:00,
2013-01-12 20:37:00,37.1,33.5,30.08,ESE,113,0.0,0.0,87,0.00,,,0.00,WUHU216HW,2013-01-12 20:37:00,
2013-01-12 20:42:00,36.9,33.3,30.08,ESE,113,0.0,0.0,87,0.00,,,0.00,WUHU216HW,2013-01-12 20:42:00,
2013-01-12 20:47:00,36.7,33.1,30.08,ESE,113,0.0,0.0,87,0.00,,,0.00,WUHU216HW,2013-01-12 20:47:00,
2013-01-12 20:52:00,36.5,32.9,30.09,ESE,113,0.0,0.0,87,0.00,,,0.00,WUHU216HW,2013-01-12 20:52:00,
2013-01-12 20:57:00,36.4,32.8,30.09,ESE,113,0.0,0.0,87,0.00,,,0.00,WUHU216HW,2013-01-12 20:57:00,
2013-01-12 21:02:00,36.4,33.1,30.08,ESE,113,0.0,0.0,88,0.00,,,0.00,WUHU216HW,2013-01-12 21:02:00,
2013-01-12 21:07:00,36.2,32.6,30.09,North,0,0.0,0.0,87,0.00,,,0.00,WUHU216HW,2013-01-12 21:07:00,
2013-01-12 21:12:00,36.2,32.6,30.09,North,0,0.0,0.0,87,0.00,,,0.00,WUHU216HW,2013-01-12 21:12:00,
2013-01-12 21:17:00,36.4,33.1,30.09,North,0,0.0,0.0,88,0.00,,,0.00,WUHU216HW,2013-01-12 21:17:00,
2013-01-12 21:22:00,36.4,33.1,30.09,North,0,0.0,0.0,88,0.00,,,0.00,WUHU216HW,2013-01-12 21:22:00,
2013-01-12 21:27:00,36.4,33.1,30.09,North,0,0.0,0.0,88,0.00,,,0.00,WUHU216HW,2013-01-12 21:27:00,
2013-01-12 21:32:00,36.4,33.1,30.09,North,0,0.0,0.0,88,0.00,,,0.00,WUHU216HW,2013-01-12 21:32:00,
2013-01-12 21:37:00,36.2,33.0,30.09,North,0,0.0,0.0,88,0.00,,,0.00,WUHU216HW,2013-01-12 21:37:00,
2013-01-12 21:42:00,36.2,33.0,30.09,North,0,0.0,0.0,88,0.00,,,0.00,WUHU216HW,2013-01-12 21:42:00,
2013-01-12 21:47:00,36.0,32.8,30.09,North,0,0.0,0.0,88,0.00,,,0.00,WUHU216HW,2013-01-12 21:47:00,
2013-01-12 21:52:00,36.0,32.8,30.09,North,0,0.0,0.0,88,0.00,,,0.00,WUHU216HW,2013-01-12 21:52:00,
2013-01-12 21:57:00,36.0,32.8,30.09,North,0,0.0,0.0,88,0.00,,,0.00,WUHU216HW,2013-01-12 21:57:00,
2013-01-12 22:02:00,36.0,33.0,30.09,North,0,0.0,0.0,89,0.00,,,0.00,WUHU216HW,2013-01-12 22:02:00,
2013-01-12 22:08:00,36.2,33.2,30.09,North,0,0.0,0.0,89,0.00,,,0.00,WUHU216HW,2013-01-12 22:08:00,
2013-01-12 22:13:00,36.2,33.2,30.09,North,0,0.0,0.0,89,0.00,,,0.00,WUHU216HW,2013-01-12 22:13:00,
2013-01-12 22:18:00,36.4,33.4,30.09,North,0,0.0,0.0,89,0.00,,,0.00,WUHU216HW,2013-01-12 22:18:00,
2013-01-12 22:23:00,36.4,33.1,30.09,North,0,0.0,0.0,88,0.00,,,0.00,WUHU216HW,2013-01-12 22:23:00,
2013-01-12 22:28:00,36.7,33.1,30.09,North,0,0.0,0.0,87,0.00,,,0.00,WUHU216HW,2013-01-12 22:28:00,
2013-01-12 22:33:00,37.1,33.5,30.09,North,0,0.0,0.0,87,0.00,,,0.00,WUHU216HW,2013-01-12 22:33:00,
2013-01-12 22:38:00,37.1,33.5,30.09,North,0,0.0,0.0,87,0.00,,,0.00,WUHU216HW,2013-01-12 22:38:00,
2013-01-12 22:43:00,37.1,33.5,30.09,North,0,0.0,0.0,87,0.00,,,0.00,WUHU216HW,2013-01-12 22:43:00,
2013-01-12 22:48:00,37.1,33.5,30.09,North,0,0.0,0.0,87,0.00,,,0.00,WUHU216HW,2013-01-12 22:48:00,
2013-01-12 22:53:00,36.9,33.3,30.09,North,0,0.0,0.0,87,0.00,,,0.00,WUHU216HW,2013-01-12 22:53:00,
2013-01-12 22:58:00,36.9,33.3,30.09,North,0,0.0,0.0,87,0.00,,,0.00,WUHU216HW,2013-01-12 22:58:00,
2013-01-12 23:03:00,36.9,33.3,30.09,North,0,0.0,0.0,87,0.00,,,0.00,WUHU216HW,2013-01-12 23:03:00,
2013-01-12 23:08:00,36.9,33.3,30.09,North,0,0.0,0.0,87,0.00,,,0.00,WUHU216HW,2013-01-12 23:08:00,
2013-01-12 23:13:00,36.7,33.1,30.10,North,0,0.0,0.0,87,0.00,,,0.00,WUHU216HW,2013-01-12 23:13:00,
2013-01-12 23:18:00,36.5,33.3,30.10,North,0,0.0,0.0,88,0.00,,,0.00,WUHU216HW,2013-01-12 23:18:00,
2013-01-12 23:23:00,36.5,33.3,30.10,North,0,0.0,0.0,88,0.00,,,0.00,WUHU216HW,2013-01-12 23:23:00,
2013-01-12 23:28:00,36.4,32.8,30.10,North,0,0.0,0.0,87,0.00,,,0.00,WUHU216HW,2013-01-12 23:28:00,
2013-01-12 23:33:00,36.2,32.6,30.10,North,0,0.0,0.0,87,0.00,,,0.00,WUHU216HW,2013-01-12 23:33:00,
2013-01-12 23:38:00,36.2,32.6,30.10,North,0,0.0,0.0,87,0.00,,,0.00,WUHU216HW,2013-01-12 23:38:00,
2013-01-12 23:43:00,36.0,32.8,30.10,ESE,113,0.0,0.0,88,0.00,,,0.00,WUHU216HW,2013-01-12 23:43:00,
2013-01-12 23:48:00,36.0,32.8,30.10,North,0,0.0,0.0,88,0.00,,,0.00,WUHU216HW,2013-01-12 23:48:00,
2013-01-12 23:53:00,35.8,32.6,30.10,North,0,0.0,0.0,88,0.00,,,0.00,WUHU216HW,2013-01-12 23:53:00,
2013-01-12 23:58:00,35.8,32.6,30.10,North,0,0.0,0.0,88,0.00,,,0.00,WUHU216HW,2013-01-12 23:58:00,